AirNav   TITAN Aviation Fuels
 
 1238 users online  

N71 Donegal Springs Airpark
Mount Joy/Marietta, Pennsylvania, USA

GOING TO MOUNT JOY/MARIETTA?


FAA INFORMATION EFFECTIVE 09 SEPTEMBER 2021

Location

FAA Identifier: N71
Lat/Long: 40-05-31.9440N 076-34-27.6790W
40-05.532400N 076-34.461317W
40.0922067,-76.5743553
(estimated)
Elevation: 458 ft. / 140 m (estimated)
Variation: 09W (1975)
From city: 3 miles SW of central business district of the associated city
Time zone: UTC -4 (UTC -5 during Standard Time)
Zip code: 17547

Airport Operations

Airport use: Open to the public
Activation date: 05/1947
Control tower: no
ARTCC: NEW YORK CENTER
FSS: WILLIAMSPORT FLIGHT SERVICE STATION
NOTAMs facility: IPT (NOTAM-D service available)
Attendance: MON-FRI 0800-1630, ALL SAT UNATTND, ALL SUN UNATTND
Wind indicator: yes
Segmented circle: no
Lights: ACTVT MIRL RWY 10/28 - CTAF.
Beacon: white-green (lighted land airport)
ACTVT ROTG BCN - CTAF

Airport Communications

CTAF/UNICOM: 122.8
HARRISBURG APPROACH: 126.45
HARRISBURG DEPARTURE: 126.45
CLEARANCE DELIVERY: 127.05
WX ASOS at MDT (11 nm NW): 118.8 (717-944-1372)
WX ASOS at LNS (13 nm E): 125.675 (717-569-8860)
WX ASOS at CXY (15 nm NW): PHONE 717-770-0880
WX ASOS at THV (17 nm SW): 119.275 (717-792-5529)
WX AWOS-2 at 9D4 (19 nm NE): 118.45 (717-866-2906)

Nearby radio navigation aids

VOR radial/distance  VOR name  Freq  Var
LRPr272/13.1LANCASTER VOR/DME117.3009W
HARr129/26.0HARRISBURG VORTAC112.5010W
RAVr189/27.7RAVINE VORTAC114.6011W

 
NDB name  Hdg/Dist  Freq  Var  ID
BELLGROVE193/20.632810WBZJ -... --.. .---

Airport Services

Fuel available: 100LL
Parking: tiedowns
Airframe service: MAJOR
Powerplant service: NONE
Bottled oxygen: NONE
Bulk oxygen: NONE

Runway Information

Runway 10/28

Dimensions: 3250 x 50 ft. / 991 x 15 m
Surface: asphalt, in fair condition
Weight bearing capacity: 
Single wheel: 12.5
Runway edge lights: medium intensity
RUNWAY 10  RUNWAY 28
Latitude: 40-05.508200N40-05.557200N
Longitude: 076-34.809183W076-34.115083W
Elevation: 458.0 ft.400.0 ft.
Traffic pattern: leftleft
Runway heading: 094 magnetic, 085 true274 magnetic, 265 true
Displaced threshold: 300 ft.
RWY 10 DTHR BAR 300 FT FM RWY END, DTHR LGTS 300 FT FM RWY END.
no
Markings: nonprecision, in good conditionnonprecision, in good condition
Touchdown point: yes, no lightsyes, no lights
Obstructions: 29 ft. pole, 606 ft. from runway, 244 ft. left of centerline, 14:1 slope to clear
RWY 10; 15 FT ROAD 16 FT FM RWY END.
none

Airport Ownership and Management from official FAA records

Ownership: Privately-owned
Owner: N71, INC.
186 AIRPORT RD
MARIETTA, PA 17547
Phone 717-928-4360
Manager: ANDREW STERLING
186 AIRPORT RD
MARIETTA, PA 17547
Phone 717-928-4360

Airport Operational Statistics

Aircraft based on the field: 14
Single engine airplanes: 14
    
Aircraft operations: avg 33/day *
50% local general aviation
42% transient general aviation
8% military
* for 12-month period ending 30 December 2020

Additional Remarks

FOR CD CTC HARRISBURG APCH AT 800-932-0712.

Instrument Procedures

NOTE: All procedures below are presented as PDF files. If you need a reader for these files, you should download the free Adobe Reader.

NOT FOR NAVIGATION. Please procure official charts for flight.
FAA instrument procedures published for use from 09 September 2021 at 0901Z to 07 October 2021 at 0900Z.

 
IAPs - Instrument Approach Procedures
RNAV (GPS) RWY 28   download (183KB)
VOR RWY 28   download (212KB)
NOTE: Special Take-Off Minimums/Departure Procedures apply   download (149KB)

Other nearby airports with instrument procedures:

KMDT - Harrisburg International Airport (11 nm NW)
58N - Reigle Field Airport (12 nm N)
KLNS - Lancaster Airport (13 nm E)
KCXY - Capital City Airport (15 nm NW)
08N - Keller Brothers Airport (16 nm NE)
KTHV - York Airport (17 nm SW)
9D4 - Deck Airport (19 nm NE)
 
Loc | Ops | Rwys | IFR | FBO | Links
Com | Nav | Svcs | Stats | Notes
Area around N71 (Donegal Springs Airpark)
 
Road maps at: MapQuest Bing Google
 
Aerial photo
WARNING: Photo may not be current or correct
Aerial photo of N71 (Donegal Springs Airpark)
Looking east.

Do you have a better or more recent aerial photo of Donegal Springs Airpark that you would like to share? If so, please send us your photo.

 
Sectional chart

 
Airport distance calculator
Flying to Donegal Springs Airpark? Find the distance to fly.

From to N71

Sunrise and sunset
Times for 21-Sep-2021
 Local
(UTC-4)
 Zulu
(UTC)
Morning civil twilight06:2710:27
Sunrise06:5410:54
Sunset19:0523:05
Evening civil twilight19:3223:32

Current date and time
Zulu (UTC)  21-Sep-2021 22:30:48
Local (UTC-4)  21-Sep-2021 18:30:48
 
METAR
KMDT 
11nm NW 
212156Z 14008KT 10SM SCT045 BKN200 25/17 A3020 RMK AO2 SLP226 T02500167
KLNS 
13nm E 
212153Z 15008KT 10SM FEW041 BKN060 24/16 A3022 RMK AO2 SLP232 T02440161
KCXY 
15nm NW 
212156Z 13010KT 10SM BKN040 25/17 A3020 RMK AO2 SLP227 T02500167
KTHV 
18nm SW 
212153Z AUTO 14008KT 10SM FEW060 23/17 A3021 RMK AO2 SLP231 T02330172
KMUI 
19nm N 
212156Z 13005KT 10SM FEW035 SCT049 BKN080 BKN200 24/16 A3022 RMK AO2A SLP234 T02370160
TAF
KMDT 
11nm NW 
211120Z 2112/2212 09005KT P6SM BKN030 OVC050 FM211900 13008G14KT P6SM SCT025 OVC050 FM220600 13008KT P6SM VCSH OVC030
KLNS 
13nm E 
211149Z 2112/2212 08005KT P6SM BKN035 OVC050 FM211800 13009G14KT P6SM SCT030 OVC250 FM220600 11007KT P6SM VCSH OVC030
KMUI 
19nm N 
211100Z 2111/2217 12006KT 9999 SCT015 BKN025 QNH3031INS BECMG 2114/2115 15010G15KT 9999 BKN035 QNH3022INS BECMG 2120/2122 14006KT 9999 OVC035 QNH3020INS BECMG 2207/2208 13006KT 8000 BR OVC010 QNH3010INS BECMG 2211/2212 14009KT 8000 -RA BR OVC010 QNH3006INS BECMG 2214/2215 14009KT 4800 RA BR OVC007 QNH3001INS TX25/2120Z TN13/2211Z
NOTAMs
Click for the latest NOTAMs
NOTAMs are issued by the DoD/FAA and will open in a separate window not controlled by AirNav.

 

 
 

FBO, Fuel Providers, and Aircraft Ground Support

  
 Business Name 
 
 Contact 
 
 Services / Description 
 
Fuel Prices
 
Comments
  
N71, Inc. 717-928-4360
no information available

If you are affiliated with N71, Inc. and would like to show here your services, contact info, web link, logo, and more, click here
100LL
SS $5.25 
 Updated 07-Sep-2021
 
   3 read write
SS=Self service
Update Fuel Prices
 

Would you like to see your business listed on this page?

 If your business provides an interesting product or service to pilots, flight crews, aircraft, or users of the Donegal Springs Airpark, you should consider listing it here.  To start the listing process, click on the button below
 
Add a business
 

Other Pages about Donegal Springs Airpark

flyn71.com/index.html
 
Update a link
 
Copyright © AirNav, LLC. All rights reserved. Privacy Policy  Contact